CZ-6A DEB

Satellite information

Favourite Embed

Satellite Type and Status

DEBRISIN ORBIT

Key statistics

Satellite CZ-6A DEB at a glance.

Uptime

1023

Days in orbit

Revolutions

≈ 14.6

Per day

Orbit

SSO

Sun Synchronous Orbit

Inclination

98.7

Latest

Satellite identification and parameters

Extended collection of information and parameters for CZ-6A DEB.

Object identification

Identified? True

Debris? True

Object name: CZ-6A DEB

International designator: 2022-151MB

Object number (NORAD): 54575

Object ID (CCSDS): 54575

Country: PEOPLES REPUBLIC OF CHINA (PRC)

Current information (Y/N): Y

RCS size: SMALL

Orbital parameters

Period: 98.543 minutes

Inclination: 98.6579 deg

SMA: 7067.136 km

Apoapsis: 783.148 km

Periapsis: 594.853 km

RAAN: 297.3508 deg

Eccentricy: 0.01332185

Argument of periapsis: 92.6453 deg

Mean anomaly: 269.0003 deg

Mean motion: 14.612941 rev/day

Mean motion (dot): 0.00010495 rev/day2

B* drag term: 0.0018816604 1/REarth

Two-line elements (TLE)

Creation date: Aug. 30, 2025, 3:38 a.m.

Reference frame: TEME

Reference center: EARTH

Epoch: Aug. 29, 2025, 3:41 p.m. UTC

TLE line 0: 0 CZ-6A DEB

TLE line 1: 1 54575U 22151MB 25241.65351212 .00010495 00000-0 18817-2 0 9992

TLE line 2: 2 54575 98.6579 297.3508 0133218 92.6453 269.0003 14.61294100147384

Live tracking on map

Real-time ground track for satellite CZ-6A DEB.

In-orbit conjunctions

A list of the most updated potential collisions computed for object CZ-6A DEB.

Target Orbit TCA Probability of collision Miss distance Type
COSMOS 468 LEO 2025-04-09 01:40:05 0.0007417947 348.0 (m) PAYLOAD
SL-16 DEB LEO 2024-08-06 02:54:27 0.0001153384 502.0 (m) DEBRIS
FENGYUN 1C DEB SSO 2024-07-17 06:30:16 0.0001241884 308.0 (m) DEBRIS

Associated space launch

Chinese satellite reported for atmospheric/ocean/environmental/spatial parameter research purposes, details TBD.

CZ-6A DEB was lifted into orbit during the mission ‘Long March 6A | Yunhai 3’, on board a Long March 6A space rocket.

The launch took place on Nov. 11, 2022, 10:52 p.m. from Launch Complex 9A.

For more information about the launch, click the button.

Launch to space Long March 6A | Yunhai 3
Long March 6A | Yunhai 3

Agency: N/A

Status: Launch Successful

Launch date: Nov. 11, 2022, 10:52 p.m. UTC

Rocket: Long March 6A

Launch pad: Launch Complex 9A

Location: Taiyuan Satellite Launch Center, People's Republic of China

...

Latest news about this satellite

There are no fresh news available about this satellite. Check back as we update our databases every day.


Newsletter sign-up

Weekly statistics, charts and insights to help you stay on top of the space industry.